Weather History for KBTV - November, 2013

Change the Weather History Date:

Sunday, November 10, 2013

  Actual Average Record
Temperature  
Mean Temperature 43 °F 40 °F  
Max Temperature 47 °F 48 °F 74 °F (1948)
Min Temperature 38 °F 33 °F 15 °F (1991)
Degree Days  
Heating Degree Days 22 25  
Month to date heating degree days 223 233  
Since 1 July heating degree days 842 974  
Cooling Degree Days 0 0  
Month to date cooling degree days 0 0  
Year to date cooling degree days 662 491  
Moisture  
Dew Point 35 °F    
Average Humidity 75    
Maximum Humidity 85    
Minimum Humidity 64    
Precipitation  
Precipitation 0.12 in 0.10 in 2.46 in (1990)
Month to date precipitation 0.54 1.11  
Year to date precipitation 40.56 32.42  
Snow  
Snow 0.00 in 0.10 in 5.30 in (1990)
Month to date snowfall 0.0 0.9  
Since 1 July snowfall T 1.2  
Since 1 September snowfall T 1.2  
Snow Depth 0.00 in    
Sea Level Pressure  
Sea Level Pressure 29.77 in    
Wind  
Wind Speed 11 mph (SSW)    
Max Wind Speed 23 mph    
Max Gust Speed 32 mph    
Visibility 10 miles    
Events Rain    
T = Trace of Precipitation, MM = Missing Value Source: NWS Daily Summary

Daily Weather History Graph

Daily Weather History Graph

Search for Another Location

Airport or City:

Trip Planner

Search our weather history database for the weather conditions in past years. The results will help you decide how hot, cold, wet, or windy it might be!

Date:

Astronomy

Nov. 10, 2013 Rise Set
Actual Time 6:42 AM EST 4:30 PM EST
Civil Twilight 6:11 AM EST 5:01 PM EST
Nautical Twilight 5:36 AM EST 5:36 PM EST
Astronomical Twilight 5:02 AM EST 6:10 PM EST
Moon 12:49 PM EST (11/10) No Moon Set
Length of Visible Light 10h 49m
Length of Day
9h 47m
First Quarter, 55% of the Moon is Illuminated
Nov 10
First Quarter
Nov 17
Full
Nov 25
Last Quarter
Dec 2
New
Dec 9
First Quarter

Hourly Weather History & Observations

Time (EST) Temp. Windchill Dew Point Humidity Pressure Visibility Wind Dir Wind Speed Gust Speed Precip Events Conditions
12:54 AM 37.9 °F 31.5 °F 33.1 °F 83% 29.88 in 10.0 mi SSE 9.2 mph - 0.00 in Rain Light Rain
1:54 AM 37.9 °F 31.5 °F 34.0 °F 86% 29.86 in 10.0 mi South 9.2 mph - 0.00 in Rain Light Rain
2:08 AM 37.4 °F 31.4 °F 33.8 °F 87% 29.84 in 10.0 mi South 8.1 mph - 0.01 in Rain Light Rain
2:41 AM 37.4 °F 31.4 °F 33.8 °F 87% 29.82 in 10.0 mi SSE 8.1 mph - 0.02 in Rain Light Rain
2:54 AM 37.9 °F 32.7 °F 34.0 °F 86% 29.83 in 10.0 mi SE 6.9 mph - 0.02 in Rain Light Rain
3:22 AM 37.4 °F 32.8 °F 33.8 °F 87% 29.81 in 8.0 mi SSE 5.8 mph - 0.00 in Rain Light Rain
3:54 AM 37.9 °F 30.9 °F 34.0 °F 86% 29.81 in 7.0 mi South 10.4 mph 19.6 mph 0.04 in Rain Light Rain
4:12 AM 37.4 °F 29.8 °F 33.8 °F 87% 29.79 in 8.0 mi South 11.5 mph - 0.01 in Rain Light Rain
4:27 AM 37.4 °F 31.4 °F 35.6 °F 93% 29.78 in 10.0 mi South 8.1 mph - 0.02 in Rain Light Rain
4:54 AM 37.9 °F 31.5 °F 35.1 °F 89% 29.78 in 10.0 mi South 9.2 mph - 0.02 in   Overcast
5:54 AM 39.0 °F 31.8 °F 35.1 °F 86% 29.75 in 10.0 mi South 11.5 mph - N/A   Overcast
6:54 AM 41.0 °F 33.9 °F 35.1 °F 79% 29.75 in 10.0 mi South 12.7 mph - N/A   Overcast
7:54 AM 42.1 °F 35.2 °F 34.0 °F 73% 29.75 in 10.0 mi South 12.7 mph 20.7 mph N/A   Mostly Cloudy
8:54 AM 42.1 °F 34.9 °F 33.1 °F 70% 29.75 in 10.0 mi South 13.8 mph 23.0 mph N/A   Mostly Cloudy
9:54 AM 44.1 °F 37.1 °F 34.0 °F 68% 29.73 in 10.0 mi South 15.0 mph 24.2 mph N/A   Mostly Cloudy
10:54 AM 46.0 °F 38.5 °F 35.1 °F 66% 29.72 in 10.0 mi South 19.6 mph 26.5 mph N/A   Mostly Cloudy
11:54 AM 45.0 °F 38.5 °F 36.0 °F 71% 29.70 in 10.0 mi South 13.8 mph 20.7 mph N/A   Overcast
12:54 PM 46.9 °F - 36.0 °F 66% 29.69 in 10.0 mi SSW 15.0 mph - N/A   Overcast
1:27 PM 42.8 °F 37.0 °F 37.4 °F 81% 29.70 in 2.5 mi WNW 10.4 mph 18.4 mph 0.01 in Rain Rain
1:33 PM 42.8 °F 40.1 °F 37.4 °F 81% 29.68 in 6.0 mi Variable 4.6 mph - 0.04 in Rain Light Rain
1:54 PM 44.1 °F 40.8 °F 39.0 °F 82% 29.70 in 10.0 mi SW 5.8 mph - 0.04 in   Overcast
2:54 PM 44.1 °F 42.5 °F 39.0 °F 82% 29.70 in 10.0 mi SW 3.5 mph - N/A   Overcast
3:54 PM 45.0 °F 41.8 °F 36.0 °F 71% 29.72 in 10.0 mi West 5.8 mph - 0.00 in   Overcast
4:54 PM 43.0 °F 40.3 °F 37.9 °F 82% 29.73 in 10.0 mi South 4.6 mph - N/A   Overcast
5:54 PM 43.0 °F 41.3 °F 37.9 °F 82% 29.74 in 10.0 mi SSW 3.5 mph - 0.00 in Rain Light Rain
6:54 PM 44.1 °F 40.8 °F 37.0 °F 76% 29.75 in 10.0 mi SW 5.8 mph - 0.00 in   Overcast
7:31 PM 44.6 °F 38.1 °F 35.6 °F 71% 29.75 in 10.0 mi West 13.8 mph 20.7 mph N/A   Overcast
7:54 PM 43.0 °F 35.7 °F 34.0 °F 71% 29.78 in 10.0 mi West 15.0 mph 24.2 mph N/A   Overcast
8:07 PM 42.8 °F 35.4 °F 33.8 °F 70% 29.78 in 10.0 mi WNW 15.0 mph 23.0 mph N/A   Overcast
8:54 PM 41.0 °F 34.3 °F 30.9 °F 67% 29.81 in 10.0 mi WNW 11.5 mph 19.6 mph N/A   Overcast
9:54 PM 41.0 °F 35.8 °F 30.9 °F 67% 29.84 in 10.0 mi West 8.1 mph 17.3 mph N/A   Overcast
10:03 PM 39.2 °F 30.5 °F 30.2 °F 70% 29.83 in 10.0 mi West 16.1 mph 23.0 mph N/A   Overcast
10:54 PM 39.9 °F 31.4 °F 28.9 °F 65% 29.86 in 10.0 mi West 16.1 mph 29.9 mph N/A   Overcast
11:54 PM 39.0 °F 30.3 °F 28.0 °F 65% 29.90 in 10.0 mi WNW 16.1 mph 28.8 mph N/A   Overcast